This is the latest recevied weather packets stored in our database for station/object WA7CUG. If no packets are shown the sender has not sent any weather packets the latest 10 day(s).
| Time | Temp. | Humidity | Pressure | Rain* | Wind** | Luminosity | Snow |
|---|---|---|---|---|---|---|---|
| 1777756652 | 26.67° C | 31% | 1016 hPa | 0 mm | - | 667 W/m² | - |
| 1777756349 | 26.67° C | 30% | 1016.1 hPa | 0 mm | - | 672 W/m² | - |
| 1777756046 | 26.67° C | 30% | 1015.9 hPa | 0 mm | - | 672 W/m² | - |
| 1777755743 | 26.67° C | 29% | 1015.9 hPa | 0 mm | - | 670 W/m² | - |
| 1777755440 | 26.67° C | 31% | 1016 hPa | 0 mm | - | 647 W/m² | - |
| 1777755137 | 26.11° C | 30% | 1016.1 hPa | 0 mm | - | 668 W/m² | - |
| 1777754834 | 26.11° C | 31% | 1016.1 hPa | 0 mm | - | 696 W/m² | - |
| 1777754531 | 26.11° C | 31% | 1016.3 hPa | 0 mm | - | 743 W/m² | - |
| 1777754229 | 26.11° C | 31% | 1016.2 hPa | 0 mm | - | 259 W/m² | - |
| 1777753926 | 26.11° C | 33% | 1016.3 hPa | 0 mm | - | 758 W/m² | - |
| 1777753620 | 26.11° C | 31% | 1016.4 hPa | 0 mm | - | 789 W/m² | - |
| 1777753319 | 25.56° C | 33% | 1016.6 hPa | 0 mm | - | 847 W/m² | - |
| 1777753016 | 25° C | 35% | 1016.4 hPa | 0 mm | - | 474 W/m² | - |
| 1777752713 | 25.56° C | 35% | 1016.5 hPa | 0 mm | - | 409 W/m² | - |
| 1777752408 | 25° C | 33% | 1016.6 hPa | 0 mm | - | 447 W/m² | - |
| 1777752105 | 25.56° C | 36% | 1016.5 hPa | 0 mm | - | 514 W/m² | - |
| 1777751803 | 25° C | 36% | 1016.8 hPa | 0 mm | - | 635 W/m² | - |
| 1777751499 | 25° C | 35% | 1016.5 hPa | 0 mm | - | 718 W/m² | - |
| 1777751196 | 25° C | 36% | 1016.7 hPa | 0 mm | - | 704 W/m² | - |
| 1777750893 | 25° C | 35% | 1016.7 hPa | 0 mm | - | 724 W/m² | - |
| 1777750589 | 25° C | 37% | 1016.8 hPa | 0 mm | - | 718 W/m² | - |
| 1777750286 | 25° C | 37% | 1016.9 hPa | 0 mm | - | 716 W/m² | - |
| 1777749981 | 25° C | 37% | 1016.9 hPa | 0 mm | - | 708 W/m² | - |
| 1777749680 | 24.44° C | 39% | 1017.1 hPa | 0 mm | - | 758 W/m² | - |
| 1777749376 | 23.89° C | 39% | 1016.9 hPa | 0 mm | - | 746 W/m² | - |
* Rain latest hour (hover to see other rain measurements)
** Current wind speed in m/s (hover to see current wind gust speed)